Location: Jaite
(41.2884°N, 81.5737°W)
Time: 21:53:50
(UTC+00:00)

Cosmos 2219 - Pass Details

Date: 18 January 2020
Orbit: 833 x 861 km, 71.1° (Epoch: 25 February)

Event Time Altitude Azimuth Distance (km) Brightness Sun altitude
Rises 00:06:23 0° 197° (SSW) 3,362 6.7 -19.0°
Reaches altitude 10° 00:08:49 10° 195° (SSW) 2,433 5.9 -19.4°
Maximum altitude 00:14:22 75° 111° (ESE) 865 3.0 -20.4°
Enters shadow 00:17:28 28° 31° (NNE) 1,539 4.2 -21.0°
